896  
NZUS99 KDVN 190606  
HRRRRR  
HOURLY WEATHER ROUNDUP  
NATIONAL WEATHER SERVICE QUAD CITIES IA IL  
100 AM CDT FRI APR 19 2024  
 
NOTE: "FAIR" INDICATES FEW OR NO CLOUDS BELOW 12,000 FEET WITH  
NO SIGNIFICANT WEATHER AND/OR OBSTRUCTIONS TO VISIBILITY.  
------------------------------------------------------------------  
 
CITY SKY/WX TMP DP RH WIND PRES REMARKS  
BURLINGTON CLEAR 45 37 73 NW12G21 30.12R WCI 39  
6HR MIN TEMP: 45; 6HR MAX TEMP: 50;  
 
CEDAR RAPIDS CLEAR 36 33 89 NW7 30.14R WCI 30  
6HR MIN TEMP: 36; 6HR MAX TEMP: 50;  
 
DAVENPORT CLEAR 43 37 79 NW15 30.12R WCI 36  
6HR MIN TEMP: 42; 6HR MAX TEMP: 49;  
 
DUBUQUE CLEAR 41 32 70 N14 30.11R WCI 33  
6HR MIN TEMP: 41; 6HR MAX TEMP: 49;  
 
IOWA CITY CLEAR 41 34 76 NW7 30.16R WCI 36  
6HR MIN TEMP: 41; 6HR MAX TEMP: 51;  
 
MOLINE CLEAR 46 37 71 NW13 30.09R WCI 40  
6HR MIN TEMP: 45; 6HR MAX TEMP: 50;  
 
------------------------------------------------------------------  
THE STATIONS BELOW ARE NOT NWS STATIONS AND ARE NOT SUBJECT TO NWS  
QUALITY CONTROL. SOME STATIONS DO NOT REPORT WEATHER SUCH AS FOG.  
* - STATIONS THAT REPORT TMP AND DP IN WHOLE DEGREES CELSIUS, WHICH  
ARE THEN CONVERTED TO FAHRENHEIT. THUS, SOME FAHRENHEIT VALUES WILL  
NEVER BE OBSERVED.  
------------------------------------------------------------------  
 
CITY SKY/WX TMP DP RH WIND PRES REMARKS  
CLINTON CLEAR 42 41 96 NW13 30.10R WCI 35  
6HR MIN TEMP: 40; 6HR MAX TEMP: 48;  
 
FAIRFIELD * CLEAR 41 34 75 NW9 30.15R WCI 35  
FORT MADISON * CLEAR 45 37 76 NW12 30.13R WCI 39  
6HR MIN TEMP: 44; 6HR MAX TEMP: 50;  
 
FREEPORT N/A 43 40 89 NW9 30.08R WCI 37  
6HR MIN TEMP: 43; 6HR MAX TEMP: 47;  
 
INDEPENDENCE CLEAR 37 30 75 NW7 30.17R WCI 32  
6HR MIN TEMP: 37; 6HR MAX TEMP: 49;  
 
KEOKUK * PTCLDY 45 39 81 NW9 30.14R WCI 40  
MACOMB CLEAR 44 39 83 NW9 30.13R WCI 39  
6HR MIN TEMP: 44; 6HR MAX TEMP: 50;  
 
MONTICELLO * CLEAR 39 34 81 NW7 30.12R WCI 34  
MT PLEASANT * CLEAR 43 34 70 NW10 30.15R WCI 37  
MUSCATINE * CLEAR 43 36 75 NW10 30.14R WCI 37  
SAVANNA * NOT AVBL  
STERLING/R.F. CLEAR 45 42 89 NW8 30.07R WCI 41  
6HR MIN TEMP: 45; 6HR MAX TEMP: 49;  
 
VINTON CLEAR 39 32 75 NW6 30.16R WCI 35  
6HR MIN TEMP: 39; 6HR MAX TEMP: 51;  
 
WASHINGTON * CLEAR 41 36 81 NW12 30.14R WCI 34  
 
------------------------------------------------------------------  
 
 
CLICK HERE TO GO TO PREVIOUS BULLETINS.

The Nexlab IL Page
The Nexlab IA Page
The Nexlab MO Page Main Text Page